TimeHST,TemperatureF,Dew PointF,Humidity,Sea Level PressureIn,VisibilityMPH,Wind Direction,Wind SpeedMPH,Gust SpeedMPH,PrecipitationIn,Events,Conditions,WindDirDegrees,DateUTC
12:53 AM,77.0,66.0,69,29.99,10.0,ENE,12.7,18.4,N/A,,Partly Cloudy,70,2013-10-06 10:53:00
1:53 AM,75.9,64.9,69,29.97,10.0,ENE,8.1,-,N/A,,Partly Cloudy,60,2013-10-06 11:53:00
2:53 AM,75.9,66.0,71,29.96,10.0,NE,8.1,-,N/A,,Scattered Clouds,50,2013-10-06 12:53:00
3:53 AM,75.9,66.0,71,29.95,10.0,East,6.9,-,N/A,,Scattered Clouds,90,2013-10-06 13:53:00
4:53 AM,75.9,64.0,67,29.96,10.0,ENE,8.1,-,N/A,,Partly Cloudy,70,2013-10-06 14:53:00
5:53 AM,75.9,64.9,69,29.96,10.0,ENE,9.2,-,N/A,,Partly Cloudy,60,2013-10-06 15:53:00
6:53 AM,75.9,64.9,69,29.97,10.0,Variable,4.6,-,N/A,,Partly Cloudy,0,2013-10-06 16:53:00
7:53 AM,78.1,66.0,66,29.98,10.0,ENE,10.4,-,N/A,,Mostly Cloudy,70,2013-10-06 17:53:00
8:53 AM,79.0,66.0,64,30.00,10.0,East,12.7,-,N/A,,Mostly Cloudy,80,2013-10-06 18:53:00
9:53 AM,81.0,66.0,60,30.01,10.0,NE,12.7,-,N/A,,Mostly Cloudy,50,2013-10-06 19:53:00
10:53 AM,81.0,66.0,60,30.01,10.0,NE,13.8,-,N/A,,Mostly Cloudy,50,2013-10-06 20:53:00
11:53 AM,82.9,66.0,56,29.99,10.0,NE,15.0,24.2,N/A,,Overcast,50,2013-10-06 21:53:00
12:53 PM,80.1,68.0,67,29.97,10.0,ENE,12.7,-,0.00,,Overcast,70,2013-10-06 22:53:00
1:53 PM,81.0,66.0,60,29.95,10.0,NNE,12.7,18.4,N/A,,Overcast,30,2013-10-06 23:53:00
2:53 PM,80.1,66.0,62,29.94,10.0,NE,13.8,21.9,N/A,,Overcast,50,2013-10-07 00:53:00
3:53 PM,79.0,64.9,62,29.93,10.0,ENE,15.0,21.9,N/A,,Mostly Cloudy,70,2013-10-07 01:53:00
4:53 PM,79.0,66.0,64,29.94,10.0,NE,15.0,21.9,N/A,,Mostly Cloudy,50,2013-10-07 02:53:00
5:53 PM,77.0,68.0,74,29.96,10.0,NE,9.2,-,0.01,Rain,Light Rain,40,2013-10-07 03:53:00
6:53 PM,77.0,66.9,71,29.97,10.0,ENE,12.7,-,0.00,,Mostly Cloudy,70,2013-10-07 04:53:00
7:53 PM,78.1,66.9,68,29.99,10.0,ENE,10.4,-,N/A,,Mostly Cloudy,60,2013-10-07 05:53:00
8:53 PM,77.0,68.0,74,30.00,10.0,ENE,11.5,-,0.00,,Mostly Cloudy,70,2013-10-07 06:53:00
9:53 PM,77.0,66.9,71,30.01,10.0,ENE,12.7,-,N/A,,Scattered Clouds,60,2013-10-07 07:53:00
10:53 PM,73.0,69.1,87,30.01,7.0,East,9.2,-,0.01,Rain,Rain,100,2013-10-07 08:53:00
11:53 PM,73.9,69.1,85,29.99,10.0,ENE,8.1,-,0.00,,Mostly Cloudy,60,2013-10-07 09:53:00